sat.trackr.live / text

‹ back to catalog

LEMUR-2-NIMBUS2000

NORAD 58899 · 2024-022A

PAYLOAD ACTIVE UNKNOWN

§ Identity

Operator
Country
US
Launch date
2024-01-31
Launch site
RLLB
Launch vehicle
Mass (kg)
RCS (m²)

Purposes: earth_obs

External: N2YO · Heavens-Above · Gunter

§ Orbital elements

Epoch: 2026-09-19T19:59:52.450944Z

Period
93.29 min
Inclination
97.3994°
Eccentricity
0.0009179
Mean motion
15.43635873 rev/d
Perigee alt
429.1 km
Apogee alt
441.6 km
Semi-major
6,813.5 km
B*
3.8896e-4
RAAN
114.2288°
Arg perigee
128.4328°
Mean anomaly
231.7745°
Rev number
14,685

§ Raw data

LEMUR-2-NIMBUS20001 58899U 24022A   26262.83324596  .00017465  00000+0  38896-3 0  99962 58899  97.3994 114.2288 0009179 128.4328 231.7745 15.43635873146850

JSON: /api/v1/satellites/58899 · /tle

For live sub-satellite position, see the globe view (requires WebGL).

§ Visibility from observer

Set your observer location to see the next 7 days of passes ≥ 10°. The values pass through the URL so the page stays shareable.

No JS? Fill the form by hand. The geolocation button needs JavaScript.